DELTA 1 DEB, 47114

Orbit data source: Space-Track

DELTA 1 DEB, 47114 is space debris in SSO originally from a launch on Tue, 06 Nov 1973 UTC launched from the Air Force Western Test Range (AFWTR). Debris objects in space refer to the collection of defunct objects orbiting the Earth. Examples of debris include non-operational satellites, rocket bodies, and fragments generated from explosions, collisions, or faulty payload assembly.

Loading next visibility...
Identifier
47114, 1973-086JF
Orbit
SSO
Country
Flag of USUS
Related business
Manufacturer
Unknown
Mission
Spacecraft
Bus & Motor
Unknown
Mass
Unknown
Launch date (UTC)
1973-11-06 (53 years ago)
Launch vehicle
Unknown
Launch site
Air Force Western Test Range (AFWTR)
Object type
Payload
Rocket body
Debris
Shape & HBR
Unknown shape, 0.1 m
Radar Cross Section
Small (<0.1 m²)

Expand to show TLE details & history
Last TLE update: 15 hours ago

TLE from 15 hours ago
0 DELTA 1 DEB
1 47114U 73086JF  26263.45738190 -.00000024  00000-0  12672-3 0  9995
2 47114 101.5007 139.9130 0096505 340.1306  19.6016 12.46375445578285
Epoch: 2026-09-20T10:58Z
TLE epoch observation values (Epoch: 2026-09-20T10:58:37.796Z)
Latitude
-0.00008°
Longitude
-24.09575°
Altitude
1,410.905 km
Speed
7.187 km/s
True Right ascension
09h 19m 39s
True Declination
0° 00' 00"
Sunlit
Object was in daylight at epoch
Visualization orbit readout
Latitude
Unknown
Longitude
Unknown
Altitude
Unknown
Speed
Unknown
Apparent Right ascension
Unknown
Apparent Declination
Unknown
Sunlit
N/A
Visualization observer readout
Local Sidereal Time
18:56:40
Azimuth
Unknown
Elevation
Unknown
Doppler factor
Unknown
Orbital elements
Apogee altitude
1,553.037 km
Perigee altitude
1,401.421 km
Semi-major axis
7,855.366 km
Eccentricity
0.00965
Inclination
101.5007°
RAAN
139.913°
Arg. of periapsis
340.1306°
True anomaly
19.97685°
Mean anomaly
19.6016°
Eccentric anomaly
19.7888°
Mean motion
3.11741 °/min
Orbital period
115.48 mins
BSTAR
0.00012672
Loading maneuver chart data...
Computing Atmospheric mass density...
Loading historical data...
Loading historical data...
Loading historical data...
Loading historical data...
Loading historical data...
Loading historical data...
Loading historical data...

Documentation

Showing up to 5 results
|